Saginaw, MI

5:34 PM EDT on August 19, 2017 (GMT -0400)
MBS International

Weather History for KMBS - January, 2014

Change the Weather History Date:

Sunday, January 26, 2014

  Actual Average Record
Temperature  
Mean Temperature 11 °F 22 °F  
Max Temperature 21 °F 29 °F 46 °F (2002)
Min Temperature 1 °F 15 °F -2 °F (2003)
Degree Days  
Heating Degree Days 54    
Month to date heating degree days 1252  
Since 1 July heating degree days 3956  
Cooling Degree Days 0    
Month to date cooling degree days 0  
Year to date cooling degree days 0  
Moisture  
Dew Point 7 °F    
Average Humidity 77    
Maximum Humidity 87    
Minimum Humidity 67    
Precipitation  
Precipitation 0.06 in 0.04 in 0.14 in (2012)
Month to date precipitation 1.90 1.47  
Year to date precipitation 1.90 1.47  
Snow  
Snow 1.00 in - - ()
Month to date snowfall 15.6  
Since 1 July snowfall 36.1  
Snow Depth 12.00 in    
Sea Level Pressure  
Sea Level Pressure 29.48 in    
Wind  
Wind Speed 11 mph (SSW)    
Max Wind Speed 24 mph    
Max Gust Speed 32 mph    
Visibility 5 miles    
Events Snow    
T = Trace of Precipitation, MM = Missing Value Source: NWS Daily Summary

Daily Weather History Graph

Daily Weather History Graph

Search for Another Location

Airport or City:

Trip Planner

Search our weather history database for the weather conditions in past years. The results will help you decide how hot, cold, wet, or windy it might be!

Date:

Astronomy

Jan. 26, 2014 Rise Set
Actual Time 7:58 AM EST 5:39 PM EST
Civil Twilight 7:27 AM EST 6:10 PM EST
Nautical Twilight 6:53 AM EST 6:45 PM EST
Astronomical Twilight 6:19 AM EST 7:19 PM EST
Moon 3:35 AM EST (1/26) 1:27 PM EST (1/26)
Length of Visible Light 10h 42m
Length of Day
9h 41m
Waning Crescent, 24% of the Moon is Illuminated
Jan 26
Waning Crescent
Jan 30
New
Feb 6
First Quarter
Feb 14
Full
Feb 22
Last Quarter

Hourly Weather History & Observations

Time (EST) Temp. Windchill Dew Point Humidity Pressure Visibility Wind Dir Wind Speed Gust Speed Precip Events Conditions
12:53 AM 5.0 °F -8.1 °F -2.9 °F 70% 29.77 in 5.0 mi SW 8.1 mph - 0.00 in Snow Light Snow
1:53 AM 5.0 °F -6.9 °F -0.9 °F 76% 29.75 in 10.0 mi SW 6.9 mph - 0.00 in   Overcast
2:53 AM 1.9 °F -9.2 °F -2.0 °F 83% 29.74 in 10.0 mi SSW 5.8 mph - N/A   Clear
3:53 AM 1.0 °F -10.3 °F -2.9 °F 83% 29.73 in 10.0 mi SSW 5.8 mph - N/A   Clear
4:53 AM 1.9 °F -7.6 °F -2.9 °F 80% 29.71 in 10.0 mi SSW 4.6 mph - N/A   Scattered Clouds
5:53 AM 3.0 °F -8.0 °F -2.0 °F 80% 29.73 in 10.0 mi SSW 5.8 mph - N/A   Scattered Clouds
6:53 AM 3.9 °F -6.9 °F -0.0 °F 84% 29.70 in 10.0 mi SSE 5.8 mph - N/A   Overcast
7:53 AM 6.1 °F -4.3 °F 1.0 °F 80% 29.67 in 10.0 mi SE 5.8 mph - N/A   Overcast
8:11 AM 6.8 °F -4.8 °F 1.4 °F 79% 29.62 in 1.8 mi SE 6.9 mph - 0.00 in Snow Light Snow
8:23 AM 6.8 °F -4.8 °F 1.4 °F 79% 29.61 in 1.5 mi SE 6.9 mph - 0.00 in Snow Light Snow
8:46 AM 6.8 °F -6.9 °F 1.4 °F 79% 29.60 in 3.0 mi SSE 9.2 mph - 0.00 in Snow Light Snow
8:53 AM 7.0 °F -7.5 °F 1.9 °F 80% 29.65 in 2.0 mi SSE 10.4 mph - 0.00 in Snow Light Snow
9:29 AM 8.6 °F -6.3 °F 1.4 °F 73% 29.57 in 1.5 mi SSE 11.5 mph - 0.00 in Snow Light Snow
9:53 AM 8.1 °F -4.3 °F 3.0 °F 80% 29.61 in 1.0 mi SSE 8.1 mph - 0.00 in Snow Light Snow
10:53 AM 10.0 °F -5.2 °F 3.9 °F 76% 29.56 in 2.0 mi SSE 12.7 mph - 0.00 in Snow Light Snow
11:03 AM 10.4 °F -4.1 °F 5.0 °F 79% 29.51 in 1.8 mi SSE 11.5 mph - 0.00 in Snow Light Snow
11:27 AM 10.4 °F -5.4 °F 5.0 °F 79% 29.49 in 2.0 mi South 13.8 mph - 0.00 in Snow Light Snow
11:53 AM 12.0 °F -3.4 °F 5.0 °F 73% 29.50 in 2.0 mi South 13.8 mph 21.9 mph 0.00 in Snow Light Snow
12:00 PM 12.2 °F -1.8 °F 5.0 °F 73% 29.45 in 3.0 mi South 11.5 mph - 0.00 in Snow Light Snow
12:30 PM 12.2 °F -2.5 °F 5.0 °F 73% 29.45 in 2.0 mi South 12.7 mph - 0.00 in Snow Light Snow
12:53 PM 12.0 °F -0.4 °F 5.0 °F 73% 29.50 in 2.0 mi South 9.2 mph - 0.00 in Snow Light Snow
1:07 PM 12.2 °F 0.7 °F 6.8 °F 79% 29.43 in 1.5 mi South 8.1 mph - 0.00 in Snow Light Snow
1:48 PM 12.2 °F -1.0 °F 6.8 °F 79% 29.40 in 2.0 mi South 10.4 mph - 0.00 in Snow Light Snow
1:53 PM 12.9 °F -0.2 °F 6.1 °F 74% 29.43 in 6.0 mi South 10.4 mph - 0.00 in Snow Light Snow
2:02 PM 12.2 °F -1.0 °F 6.8 °F 79% 29.39 in 8.0 mi South 10.4 mph - N/A   Overcast
2:53 PM 12.9 °F -2.2 °F 6.1 °F 74% 29.38 in 8.0 mi South 13.8 mph - N/A   Overcast
3:53 PM 15.1 °F 2.5 °F 7.0 °F 70% 29.40 in 10.0 mi South 10.4 mph - N/A   Overcast
4:40 PM 15.8 °F 3.4 °F 8.6 °F 73% 29.36 in 2.5 mi SSW 10.4 mph 17.3 mph 0.00 in Snow Light Snow
4:49 PM 15.8 °F 5.1 °F 8.6 °F 73% 29.36 in 1.5 mi SSW 8.1 mph - 0.00 in Snow Light Snow
4:53 PM 16.0 °F 5.3 °F 9.0 °F 74% 29.40 in 1.5 mi South 8.1 mph - 0.00 in Snow Light Snow
5:12 PM 15.8 °F 4.2 °F 8.6 °F 73% 29.35 in 10.0 mi South 9.2 mph - 0.00 in   Overcast
5:53 PM 16.0 °F 2.3 °F 10.0 °F 77% 29.37 in 10.0 mi SSW 12.7 mph 19.6 mph 0.00 in   Overcast
6:53 PM 19.0 °F 5.6 °F 12.9 °F 77% 29.40 in 10.0 mi SW 13.8 mph - N/A   Overcast
7:21 PM 19.4 °F 5.5 °F 15.8 °F 86% 29.35 in 1.0 mi SW 15.0 mph 24.2 mph 0.00 in Snow Light Snow
7:42 PM 19.4 °F 6.0 °F 15.8 °F 86% 29.35 in 8.0 mi SW 13.8 mph - 0.00 in   Overcast
7:53 PM 19.9 °F 5.7 °F 15.1 °F 81% 29.40 in 10.0 mi SW 16.1 mph - 0.00 in   Overcast
8:15 PM 21.2 °F 7.3 °F 15.8 °F 80% 29.37 in 4.0 mi WSW 16.1 mph - 0.00 in Snow Light Snow
8:43 PM 21.2 °F 6.4 °F 15.8 °F 80% 29.39 in 2.5 mi WSW 18.4 mph - 0.00 in Snow Light Snow
8:50 PM 21.2 °F 6.8 °F 15.8 °F 80% 29.38 in 3.0 mi West 17.3 mph - 0.00 in Snow Light Snow
8:53 PM 21.0 °F 7.1 °F 16.0 °F 81% 29.41 in 3.0 mi West 16.1 mph - 0.00 in Snow Light Snow
9:06 PM 21.2 °F 6.4 °F 15.8 °F 80% 29.39 in 2.5 mi West 18.4 mph 28.8 mph 0.00 in Snow Light Snow
9:09 PM 21.2 °F 5.2 °F 15.8 °F 80% 29.39 in 1.8 mi West 21.9 mph 31.1 mph 0.00 in Snow Light Snow
9:21 PM 19.4 °F 4.5 °F 12.2 °F 74% 29.38 in 2.0 mi West 17.3 mph 32.2 mph 0.00 in Snow Light Snow
9:29 PM 19.4 °F 3.2 °F 12.2 °F 74% 29.37 in 4.0 mi West 20.7 mph 26.5 mph 0.00 in Snow Light Snow
9:34 PM 19.4 °F 5.5 °F 12.2 °F 74% 29.38 in 2.5 mi WNW 15.0 mph 26.5 mph 0.00 in Snow Light Snow
9:44 PM 19.4 °F 2.8 °F 12.2 °F 74% 29.37 in 2.5 mi West 21.9 mph 28.8 mph 0.00 in Snow Light Snow
9:53 PM 19.0 °F 3.2 °F 10.0 °F 68% 29.42 in 4.0 mi West 19.6 mph - 0.00 in   Haze
10:33 PM 17.6 °F 0.9 °F 10.4 °F 73% 29.39 in 2.0 mi West 20.7 mph 29.9 mph 0.00 in Snow Light Snow
10:40 PM 17.6 °F 1.7 °F 10.4 °F 73% 29.39 in 1.5 mi West 18.4 mph 27.6 mph 0.00 in Snow Light Snow
10:53 PM 17.1 °F 1.5 °F 10.9 °F 77% 29.44 in 1.8 mi West 17.3 mph - 0.00 in Snow Light Snow
11:09 PM 17.6 °F 3.7 °F 10.4 °F 73% 29.40 in 2.5 mi West 13.8 mph - 0.00 in Snow Light Snow
11:33 PM 17.6 °F 3.2 °F 10.4 °F 73% 29.41 in 4.0 mi West 15.0 mph - 0.00 in Snow Light Snow
11:53 PM 17.1 °F 3.6 °F 9.0 °F 71% 29.44 in 8.0 mi West 12.7 mph - 0.00 in   Overcast